Big Rapids, MI

8:28 PM EDT on August 18, 2019 (GMT -0400)
Roben-Hood

Weather History for KRQB - May, 2019

Change the Weather History Date:

Tuesday, May 7, 2019

  Actual Average Record
Temperature  
Mean Temperature 50 °F -  
Max Temperature 59 °F 64 °F 84 °F (2015)
Min Temperature 41 °F 36 °F 22 °F (1989)
Degree Days  
Heating Degree Days 15    
Moisture  
Dew Point 31 °F    
Average Humidity 52    
Maximum Humidity 80    
Minimum Humidity 29    
Precipitation  
Precipitation 0.00 in - - ()
Sea Level Pressure  
Sea Level Pressure 30.24 in    
Wind  
Wind Speed 4 mph (NE)    
Max Wind Speed 9 mph    
Max Gust Speed -    
Visibility 10 miles    
Events      
Averages and records for this station are not official NWS values.
T = Trace of Precipitation, MM = Missing Value Source: NWS Daily Summary

Daily Weather History Graph

Daily Weather History Graph

Search for Another Location

Airport or City:

Astronomy

May. 07, 2019 Rise Set
Actual Time 6:26 AM EDT 8:51 PM EDT
Civil Twilight 5:54 AM EDT 9:23 PM EDT
Nautical Twilight 5:14 AM EDT 10:03 PM EDT
Astronomical Twilight 4:29 AM EDT 10:49 PM EDT
Moon 8:29 AM EDT (5/7) 11:54 PM EDT (5/7)
Length of Visible Light 15h 29m
Length of Day
14h 24m
Waxing Crescent, 8% of the Moon is Illuminated
May 7
Waxing Crescent
May 11
First Quarter
May 18
Full
May 26
Last Quarter
Jun 3
New

Hourly Weather History & Observations

Time (EDT) Temp. Windchill Dew Point Humidity Pressure Visibility Wind Dir Wind Speed Gust Speed Precip Events Conditions
12:15 AM 48.0 °F - 41.4 °F 78% 30.14 in 10.0 mi NNE 3.5 mph - N/A   Clear
12:35 AM 47.7 °F - 41.4 °F 79% 30.14 in 10.0 mi NNE 4.6 mph - N/A   Clear
12:55 AM 47.3 °F - 41.2 °F 79% 30.14 in 10.0 mi NNE 3.5 mph - N/A   Clear
12:56 AM 47.3 °F - 41.2 °F 79% 30.14 in 10.0 mi NNE 3.5 mph - N/A   Clear
1:15 AM 47.3 °F - 41.0 °F 79% 30.14 in 10.0 mi NNE 4.6 mph - N/A   Clear
1:16 AM 47.3 °F - 41.0 °F 79% 30.14 in 10.0 mi NNE 3.5 mph - N/A   Clear
1:35 AM 46.8 °F - 41.0 °F 80% 30.14 in 10.0 mi NE 4.6 mph - N/A   Mostly Cloudy
1:55 AM 46.6 °F - 40.3 °F 79% 30.15 in 10.0 mi NE 3.5 mph - N/A   Scattered Clouds
1:56 AM 46.6 °F - 40.3 °F 79% 30.15 in 10.0 mi NE 3.5 mph - N/A   Scattered Clouds
2:15 AM 46.4 °F 45.2 °F 40.1 °F 79% 30.15 in 10.0 mi NE 3.5 mph - N/A   Scattered Clouds
2:16 AM 46.4 °F - 40.1 °F 79% 30.15 in 10.0 mi Calm Calm - N/A   Scattered Clouds
2:35 AM 46.4 °F 43.5 °F 39.9 °F 78% 30.15 in 10.0 mi NNE 5.8 mph - N/A   Scattered Clouds
2:55 AM 45.9 °F 42.3 °F 39.2 °F 78% 30.15 in 10.0 mi NE 6.9 mph - N/A   Scattered Clouds
3:15 AM 45.5 °F 41.8 °F 38.7 °F 77% 30.16 in 10.0 mi NE 6.9 mph - N/A   Overcast
3:16 AM 45.5 °F 41.8 °F 38.7 °F 77% 30.16 in 10.0 mi NE 6.9 mph - N/A   Overcast
3:35 AM 45.3 °F 41.1 °F 38.3 °F 76% 30.17 in 10.0 mi NE 8.1 mph - N/A   Overcast
3:36 AM 45.1 °F 40.3 °F 38.3 °F 77% 30.17 in 10.0 mi NE 9.2 mph - N/A   Overcast
3:55 AM 44.8 °F 41.6 °F 37.8 °F 76% 30.17 in 10.0 mi NE 5.8 mph - N/A   Overcast
4:15 AM 44.2 °F 41.0 °F 36.7 °F 75% 30.17 in 10.0 mi NE 5.8 mph - N/A   Overcast
4:35 AM 43.9 °F 40.5 °F 35.2 °F 72% 30.17 in 10.0 mi NNE 5.8 mph - N/A   Overcast
4:36 AM 43.9 °F 40.5 °F 35.2 °F 72% 30.17 in 10.0 mi NNE 5.8 mph - N/A   Overcast
4:55 AM 43.5 °F 40.9 °F 34.2 °F 70% 30.18 in 10.0 mi NE 4.6 mph - N/A   Overcast
5:15 AM 43.0 °F 41.3 °F 32.2 °F 66% 30.19 in 10.0 mi NE 3.5 mph - N/A   Overcast
5:35 AM 42.8 °F 41.1 °F 30.0 °F 61% 30.20 in 10.0 mi ENE 3.5 mph - N/A   Overcast
5:36 AM 42.6 °F 39.9 °F 29.8 °F 61% 30.20 in 10.0 mi NE 4.6 mph - N/A   Overcast
5:55 AM 42.3 °F 38.6 °F 27.3 °F 56% 30.21 in 10.0 mi NE 5.8 mph - N/A   Overcast
5:56 AM 42.3 °F 37.9 °F 27.0 °F 55% 30.21 in 10.0 mi NE 6.9 mph - N/A   Overcast
6:15 AM 41.9 °F 37.5 °F 27.3 °F 56% 30.21 in 10.0 mi NE 6.9 mph - N/A   Overcast
6:35 AM 41.5 °F - 27.5 °F 57% 30.21 in 10.0 mi Calm Calm - N/A   Scattered Clouds
6:55 AM 41.4 °F 38.4 °F 27.5 °F 58% 30.22 in 10.0 mi NE 4.6 mph - N/A   Mostly Cloudy
6:56 AM 41.4 °F 38.4 °F 27.5 °F 58% 30.22 in 10.0 mi NE 4.6 mph - N/A   Mostly Cloudy
7:15 AM 41.4 °F - 28.4 °F 60% 30.24 in 10.0 mi Calm Calm - N/A   Mostly Cloudy
7:16 AM 41.4 °F - 28.4 °F 60% 30.24 in 10.0 mi Calm Calm - N/A   Mostly Cloudy
7:35 AM 41.4 °F - 29.1 °F 62% 30.24 in 10.0 mi Calm Calm - N/A   Mostly Cloudy
7:55 AM 41.5 °F 39.6 °F 27.9 °F 58% 30.25 in 10.0 mi NNE 3.5 mph - N/A   Overcast
7:56 AM 41.5 °F 39.6 °F 28.0 °F 59% 30.26 in 10.0 mi NNE 3.5 mph - N/A   Overcast
8:15 AM 41.5 °F - 28.4 °F 60% 30.26 in 10.0 mi Calm Calm - N/A   Overcast
8:16 AM 41.5 °F 39.6 °F 28.4 °F 60% 30.26 in 10.0 mi NNE 3.5 mph - N/A   Overcast
8:35 AM 41.9 °F 40.0 °F 27.5 °F 57% 30.26 in 10.0 mi NNE 3.5 mph - N/A   Overcast
8:55 AM 42.6 °F 40.9 °F 28.2 °F 57% 30.25 in 10.0 mi NE 3.5 mph - N/A   Overcast
9:15 AM 43.3 °F 41.7 °F 27.7 °F 54% 30.27 in 10.0 mi NE 3.5 mph - N/A   Overcast
9:16 AM 43.3 °F 41.7 °F 27.7 °F 54% 30.27 in 10.0 mi NNE 3.5 mph - N/A   Overcast
9:35 AM 43.3 °F 40.7 °F 27.0 °F 52% 30.27 in 10.0 mi NNE 4.6 mph - N/A   Overcast
9:36 AM 43.3 °F 40.7 °F 27.1 °F 53% 30.27 in 10.0 mi NNE 4.6 mph - N/A   Overcast
9:55 AM 43.7 °F 41.1 °F 27.5 °F 53% 30.26 in 10.0 mi NNE 4.6 mph - N/A   Overcast
9:56 AM 43.7 °F 42.1 °F 27.5 °F 53% 30.27 in 10.0 mi NE 3.5 mph - N/A   Overcast
10:15 AM 44.1 °F 41.5 °F 27.7 °F 53% 30.27 in 10.0 mi ENE 4.6 mph - N/A   Overcast
10:35 AM 44.8 °F 42.4 °F 27.3 °F 50% 30.28 in 10.0 mi NNE 4.6 mph - N/A   Overcast
10:55 AM 45.7 °F 44.4 °F 28.0 °F 50% 30.28 in 10.0 mi NNE 3.5 mph - N/A   Overcast
10:56 AM 45.7 °F 44.4 °F 28.2 °F 51% 30.28 in 10.0 mi NNE 3.5 mph - N/A   Overcast
11:15 AM 46.4 °F 45.2 °F 29.1 °F 51% 30.28 in 10.0 mi North 3.5 mph - N/A   Overcast
11:35 AM 47.7 °F - 29.3 °F 49% 30.29 in 10.0 mi North 5.8 mph - N/A   Overcast
11:55 AM 48.6 °F - 29.3 °F 47% 30.29 in 10.0 mi ENE 4.6 mph - N/A   Overcast
11:56 AM 48.6 °F - 29.3 °F 47% 30.29 in 10.0 mi NE 3.5 mph - N/A   Overcast
12:15 PM 50.2 °F - 30.9 °F 48% 30.29 in 10.0 mi ENE 4.6 mph - N/A   Overcast
12:16 PM 50.2 °F - 30.6 °F 47% 30.29 in 10.0 mi NE 4.6 mph - N/A   Overcast
12:35 PM 50.4 °F - 30.2 °F 46% 30.29 in 10.0 mi SSE 3.5 mph - N/A   Overcast
12:36 PM 50.4 °F - 30.2 °F 46% 30.29 in 10.0 mi ESE 4.6 mph - N/A   Overcast
12:55 PM 51.8 °F - 31.6 °F 46% 30.29 in 10.0 mi North 4.6 mph - N/A   Overcast
1:15 PM 51.8 °F - 30.4 °F 44% 30.28 in 10.0 mi ENE 5.8 mph - N/A   Overcast
1:35 PM 53.4 °F - 31.5 °F 43% 30.28 in 10.0 mi NNE 6.9 mph - N/A   Overcast
1:36 PM 53.2 °F - 31.1 °F 43% 30.28 in 10.0 mi NE 5.8 mph - N/A   Overcast
1:55 PM 53.4 °F - 30.9 °F 42% 30.27 in 10.0 mi Calm Calm - N/A   Mostly Cloudy
2:15 PM 54.0 °F - 29.5 °F 39% 30.27 in 10.0 mi North 4.6 mph - N/A   Scattered Clouds
2:35 PM 54.9 °F - 28.8 °F 37% 30.27 in 10.0 mi SSW 3.5 mph - N/A   Clear
2:36 PM 54.7 °F - 28.9 °F 37% 30.27 in 10.0 mi SW 3.5 mph - N/A   Clear
2:55 PM 55.6 °F - 29.7 °F 37% 30.27 in 10.0 mi NNE 4.6 mph - N/A   Clear
3:15 PM 55.8 °F - 30.6 °F 38% 30.27 in 10.0 mi ESE 4.6 mph - N/A   Clear
3:35 PM 55.8 °F - 28.6 °F 35% 30.27 in 10.0 mi Calm Calm - N/A   Clear
3:55 PM 56.5 °F - 29.7 °F 36% 30.26 in 10.0 mi ESE 4.6 mph - N/A   Clear
3:56 PM 56.5 °F - 29.8 °F 36% 30.26 in 10.0 mi Calm Calm - N/A   Clear
4:15 PM 57.0 °F - 29.7 °F 35% 30.26 in 10.0 mi North 4.6 mph - N/A   Clear
4:16 PM 57.0 °F - 30.0 °F 36% 30.26 in 10.0 mi North 5.8 mph - N/A   Clear
4:35 PM 57.4 °F - 31.3 °F 37% 30.26 in 10.0 mi Calm Calm - N/A   Clear
4:55 PM 57.4 °F - 27.1 °F 31% 30.25 in 10.0 mi ENE 3.5 mph - N/A   Clear
5:15 PM 58.3 °F - 27.5 °F 31% 30.25 in 10.0 mi Calm Calm - N/A   Clear
5:16 PM 58.3 °F - 27.7 °F 31% 30.25 in 10.0 mi Calm Calm - N/A   Clear
5:35 PM 59.2 °F - 27.0 °F 29% 30.25 in 10.0 mi SW 4.6 mph - N/A   Clear
5:55 PM 58.5 °F - 27.5 °F 31% 30.24 in 10.0 mi ENE 3.5 mph - N/A   Clear
6:15 PM 58.1 °F - 27.5 °F 31% 30.24 in 10.0 mi Calm Calm - N/A   Clear
6:35 PM 58.6 °F - 27.7 °F 31% 30.24 in 10.0 mi SSW 5.8 mph - N/A   Clear
6:36 PM 58.5 °F - 27.7 °F 31% 30.24 in 10.0 mi SW 4.6 mph - N/A   Clear
6:55 PM 58.3 °F - 27.7 °F 31% 30.24 in 10.0 mi Calm Calm - N/A   Clear
6:56 PM 58.3 °F - 27.7 °F 31% 30.24 in 10.0 mi Calm Calm - N/A   Clear
7:15 PM 58.3 °F - 27.5 °F 31% 30.23 in 10.0 mi East 4.6 mph - N/A   Clear
7:35 PM 58.8 °F - 27.5 °F 30% 30.23 in 10.0 mi NNW 3.5 mph - N/A   Clear
7:36 PM 58.8 °F - 27.5 °F 30% 30.23 in 10.0 mi NNW 3.5 mph - N/A   Clear
7:55 PM 57.2 °F - 26.2 °F 31% 30.24 in 10.0 mi Calm Calm - N/A   Clear
7:56 PM 57.2 °F - 25.5 °F 30% 30.24 in 10.0 mi Calm Calm - N/A   Clear
8:15 PM 56.8 °F - 27.1 °F 32% 30.24 in 10.0 mi Calm Calm - N/A   Clear
8:35 PM 55.8 °F - 30.0 °F 37% 30.24 in 10.0 mi Calm Calm - N/A   Clear
8:55 PM 53.8 °F - 30.6 °F 41% 30.24 in 10.0 mi Calm Calm - N/A   Clear
8:56 PM 53.8 °F - 30.6 °F 41% 30.24 in 10.0 mi Calm Calm - N/A   Clear
9:15 PM 52.0 °F - 33.6 °F 50% 30.25 in 10.0 mi Calm Calm - N/A   Clear
9:35 PM 51.8 °F - 30.4 °F 44% 30.26 in 10.0 mi North 6.9 mph - N/A   Clear
9:55 PM 50.2 °F - 30.2 °F 46% 30.26 in 10.0 mi NNE 6.9 mph - N/A   Clear
9:56 PM 50.2 °F - 30.0 °F 46% 30.26 in 10.0 mi North 5.8 mph - N/A   Clear
10:15 PM 49.3 °F - 29.3 °F 46% 30.27 in 10.0 mi Calm Calm - N/A   Clear
10:35 PM 49.3 °F - 29.8 °F 47% 30.28 in 10.0 mi ENE 4.6 mph - N/A   Clear
10:55 PM 48.6 °F - 28.8 °F 46% 30.28 in 10.0 mi ENE 3.5 mph - N/A   Clear
10:56 PM 48.4 °F - 28.8 °F 47% 30.28 in 10.0 mi ENE 3.5 mph - N/A   Clear
11:15 PM 47.8 °F - 28.4 °F 47% 30.28 in 10.0 mi Calm Calm - N/A   Clear
11:16 PM 47.8 °F - 28.4 °F 47% 30.28 in 10.0 mi Calm Calm - N/A   Clear
11:35 PM 46.8 °F - 29.1 °F 50% 30.29 in 10.0 mi ENE 3.5 mph - N/A   Clear
11:55 PM 45.5 °F 44.2 °F 32.7 °F 61% 30.29 in 10.0 mi East 3.5 mph - N/A   Clear